This is the latest recevied weather packets stored in our database for station/object K1RTA. If no packets are shown the sender has not sent any weather packets the latest 10 day(s).
| Time | Temp. | Humidity | Pressure | Rain* | Wind** | Luminosity | Snow |
|---|---|---|---|---|---|---|---|
| 1788037832 | 22.78° C | 62% | 1021.9 hPa | 0 mm | - | - | - |
| 1788037534 | 22.78° C | 63% | 1021.9 hPa | 0 mm | - | - | - |
| 1788037234 | 23.33° C | 63% | 1022.1 hPa | 0 mm | - | - | - |
| 1788036934 | 23.33° C | 61% | 1022.2 hPa | 0 mm | - | - | - |
| 1788036633 | 23.89° C | 61% | 1022.3 hPa | 0 mm | - | - | - |
| 1788036333 | 24.44° C | 58% | 1022.2 hPa | 0 mm | - | - | - |
| 1788036033 | 25° C | 59% | 1022.3 hPa | 0 mm | - | - | - |
| 1788035734 | 25° C | 59% | 1022.3 hPa | 0 mm | - | - | - |
| 1788035434 | 25° C | 58% | 1022.3 hPa | 0 mm | - | - | - |
| 1788035132 | 25° C | 56% | 1022.4 hPa | 0 mm | - | - | - |
| 1788034832 | 25° C | 57% | 1022.3 hPa | 0 mm | - | - | - |
| 1788034534 | 25° C | 57% | 1022.4 hPa | 0 mm | - | - | - |
| 1788034234 | 25.56° C | 58% | 1022.4 hPa | 0 mm | - | - | - |
| 1788033934 | 25° C | 58% | 1022.4 hPa | 0 mm | - | - | - |
| 1788033634 | 25.56° C | 58% | 1022.5 hPa | 0 mm | - | - | - |
| 1788033333 | 25.56° C | 56% | 1022.5 hPa | 0 mm | - | - | - |
| 1788033033 | 25.56° C | 56% | 1022.6 hPa | 0 mm | - | - | - |
| 1788032733 | 25.56° C | 56% | 1022.6 hPa | 0 mm | - | - | - |
| 1788032433 | 25.56° C | 54% | 1022.6 hPa | 0 mm | - | - | - |
| 1788032133 | 26.11° C | 56% | 1022.7 hPa | 0 mm | - | - | - |
| 1788031833 | 26.11° C | 55% | 1022.7 hPa | 0 mm | - | - | - |
| 1788031532 | 26.11° C | 57% | 1022.7 hPa | 0 mm | - | - | - |
| 1788031232 | 26.11° C | 56% | 1022.7 hPa | 0 mm | - | - | - |
| 1788030934 | 26.11° C | 56% | 1022.7 hPa | 0 mm | - | - | - |
| 1788030634 | 26.11° C | 55% | 1022.7 hPa | 0 mm | - | - | - |
* Rain latest hour (hover to see other rain measurements)
** Current wind speed in m/s (hover to see current wind gust speed)